Moss Beach, CA

7:01 AM PST on December 09, 2016 (GMT -0800)
Half Moon Bay

Weather History for KHAF - December, 2013

Change the Weather History Date:

Thursday, December 19, 2013

  Actual Average Record
Temperature  
Mean Temperature 48 °F -  
Max Temperature 55 °F 57 °F 57 °F (2014)
Min Temperature 41 °F 41 °F 33 °F (2012)
Degree Days  
Heating Degree Days 17    
Moisture  
Dew Point 38 °F    
Average Humidity 65    
Maximum Humidity 82    
Minimum Humidity 32    
Precipitation  
Precipitation 0.00 in - - ()
Sea Level Pressure  
Sea Level Pressure 29.83 in    
Wind  
Wind Speed 18 mph (NNW)    
Max Wind Speed 29 mph    
Max Gust Speed 40 mph    
Visibility 7 miles    
Events      
Averages and records for this station are not official NWS values.
T = Trace of Precipitation, MM = Missing Value Source: NWS Daily Summary

Daily Weather History Graph

Daily Weather History Graph

Search for Another Location

Airport or City:

Trip Planner

Search our weather history database for the weather conditions in past years. The results will help you decide how hot, cold, wet, or windy it might be!

Date:

Astronomy

Dec. 19, 2013 Rise Set
Actual Time 7:20 AM PST 4:54 PM PST
Civil Twilight 6:50 AM PST 5:23 PM PST
Nautical Twilight 6:17 AM PST 5:56 PM PST
Astronomical Twilight 5:46 AM PST 6:28 PM PST
Moon 7:22 PM PST (12/19) 8:44 AM PST (12/19)
Length of Visible Light 10h 33m
Length of Day
9h 34m
Waning Gibbous, 95% of the Moon is Illuminated
Dec 19
Waning Gibbous
Dec 25
Last Quarter
Jan 1
New
Jan 7
First Quarter
Jan 15
Full

Hourly Weather History & Observations

Time (PST) Temp. Windchill Dew Point Humidity Pressure Visibility Wind Dir Wind Speed Gust Speed Precip Events Conditions
12:15 AM 50.0 °F - 44.6 °F 82% 29.81 in 5.0 mi NNW 26.5 mph 36.8 mph N/A   Haze
12:35 AM 50.0 °F - 44.6 °F 82% 29.81 in 6.0 mi NNW 23.0 mph 38.0 mph N/A   Haze
12:55 AM 50.0 °F - 44.6 °F 82% 29.81 in 5.0 mi NNW 24.2 mph 31.1 mph N/A   Haze
1:15 AM 50.0 °F - 44.6 °F 82% 29.79 in 6.0 mi NNW 26.5 mph 35.7 mph N/A   Haze
1:35 AM 50.0 °F - 44.6 °F 82% 29.79 in 5.0 mi NNW 28.8 mph 35.7 mph N/A   Haze
1:55 AM 50.0 °F - 44.6 °F 82% 29.79 in 6.0 mi NNW 25.3 mph 35.7 mph N/A   Haze
2:15 AM 50.0 °F - 42.8 °F 76% 29.80 in 6.0 mi NNW 25.3 mph 38.0 mph N/A   Haze
2:35 AM 50.0 °F - 44.6 °F 82% 29.78 in 5.0 mi NNW 26.5 mph 35.7 mph N/A   Haze
2:55 AM 50.0 °F - 41.0 °F 71% 29.77 in 7.0 mi NNW 27.6 mph 40.3 mph N/A   Overcast
3:15 AM 50.0 °F - 42.8 °F 76% 29.75 in 6.0 mi NNW 28.8 mph 38.0 mph N/A   Haze
3:35 AM 50.0 °F - 42.8 °F 76% 29.75 in 7.0 mi NNW 24.2 mph 39.1 mph N/A   Overcast
3:55 AM 50.0 °F - 41.0 °F 71% 29.75 in 7.0 mi NNW 24.2 mph 35.7 mph N/A   Overcast
4:15 AM 50.0 °F - 41.0 °F 71% 29.74 in 7.0 mi NNW 25.3 mph 34.5 mph N/A   Overcast
4:35 AM 50.0 °F - 42.8 °F 76% 29.75 in 7.0 mi NNW 18.4 mph 29.9 mph N/A   Overcast
4:55 AM 50.0 °F - 42.8 °F 76% 29.75 in 7.0 mi NNW 19.6 mph 28.8 mph N/A   Overcast
5:15 AM 50.0 °F - 42.8 °F 76% 29.75 in 7.0 mi NNW 19.6 mph 29.9 mph N/A   Overcast
5:35 AM 50.0 °F - 41.0 °F 71% 29.75 in 7.0 mi NNW 18.4 mph 29.9 mph N/A   Overcast
5:55 AM 50.0 °F - 41.0 °F 71% 29.75 in 7.0 mi NNW 17.3 mph 31.1 mph N/A   Mostly Cloudy
6:15 AM 50.0 °F - 41.0 °F 71% 29.76 in 7.0 mi North 18.4 mph 31.1 mph N/A   Scattered Clouds
6:35 AM 48.2 °F - 41.0 °F 76% 29.76 in 7.0 mi NNW 18.4 mph 25.3 mph N/A   Partly Cloudy
6:55 AM 48.2 °F - 41.0 °F 76% 29.77 in 7.0 mi North 15.0 mph 23.0 mph N/A   Clear
7:15 AM 48.2 °F - 41.0 °F 76% 29.77 in 7.0 mi NNW 12.7 mph - N/A   Clear
7:35 AM 48.2 °F - 41.0 °F 76% 29.78 in 6.0 mi NNW 13.8 mph 19.6 mph N/A   Haze
7:55 AM 48.2 °F - 41.0 °F 76% 29.78 in 7.0 mi NNW 11.5 mph - N/A   Clear
8:15 AM 50.0 °F - 41.0 °F 71% 29.79 in 7.0 mi NNW 15.0 mph 18.4 mph N/A   Clear
8:35 AM 50.0 °F - 41.0 °F 71% 29.80 in 7.0 mi NNW 15.0 mph 21.9 mph N/A   Clear
8:55 AM 50.0 °F - 41.0 °F 71% 29.81 in 8.0 mi NNW 13.8 mph 20.7 mph N/A   Unknown
9:15 AM 51.8 °F - 41.0 °F 67% 29.82 in 7.0 mi NNW 11.5 mph 23.0 mph N/A   Scattered Clouds
9:35 AM 51.8 °F - 41.0 °F 67% 29.83 in 7.0 mi NNW 13.8 mph 19.6 mph N/A   Partly Cloudy
9:55 AM 51.8 °F - 41.0 °F 67% 29.84 in 8.0 mi NNW 12.7 mph 19.6 mph N/A   Clear
10:15 AM - - - N/A% - - North - - N/A   Unknown
10:35 AM - - - N/A% - - North - - N/A   Unknown
10:55 AM 53.6 °F - 41.0 °F 62% 29.85 in - NNW 13.8 mph - N/A   Unknown
11:15 AM 53.6 °F - 41.0 °F 62% 29.85 in 9.0 mi NNW 16.1 mph 21.9 mph N/A   Clear
11:35 AM 53.6 °F - 41.0 °F 62% 29.84 in 8.0 mi NNW 15.0 mph 21.9 mph N/A   Clear
11:55 AM 55.4 °F - 41.0 °F 58% 29.83 in 8.0 mi NNW 15.0 mph 20.7 mph N/A   Clear
12:15 PM 53.6 °F - 41.0 °F 62% 29.83 in 8.0 mi NNW 15.0 mph 23.0 mph N/A   Clear
12:35 PM 53.6 °F - 41.0 °F 62% 29.82 in 7.0 mi NNW 17.3 mph 21.9 mph N/A   Clear
12:55 PM 55.4 °F - 41.0 °F 58% 29.82 in 8.0 mi NW 16.1 mph 21.9 mph N/A   Clear
1:15 PM 53.6 °F - 41.0 °F 62% 29.82 in 7.0 mi NNW 16.1 mph 23.0 mph N/A   Clear
1:35 PM 53.6 °F - 41.0 °F 62% 29.83 in 7.0 mi NNW 13.8 mph 23.0 mph N/A   Clear
1:55 PM 55.4 °F - 41.0 °F 58% 29.83 in 7.0 mi NNW 17.3 mph 23.0 mph N/A   Clear
2:15 PM 53.6 °F - 42.8 °F 67% 29.83 in 7.0 mi NNW 13.8 mph 21.9 mph N/A   Clear
2:35 PM 53.6 °F - 41.0 °F 62% 29.83 in 6.0 mi North 16.1 mph 20.7 mph N/A   Haze
2:55 PM 53.6 °F - 42.8 °F 67% 29.83 in 5.0 mi NNW 13.8 mph 21.9 mph N/A   Haze
3:15 PM 53.6 °F - 42.8 °F 67% - 5.0 mi North - - N/A   Haze
3:35 PM 53.6 °F - 42.8 °F 67% 29.84 in 5.0 mi North 12.7 mph 21.9 mph N/A   Haze
3:55 PM 53.6 °F - 41.0 °F 62% 29.85 in 5.0 mi North 13.8 mph 21.9 mph N/A   Haze
4:15 PM - - - N/A% - 5.0 mi North - - N/A   Haze
4:35 PM 51.8 °F - 42.8 °F 71% 29.85 in 5.0 mi NNW 15.0 mph 19.6 mph N/A   Haze
4:55 PM 50.0 °F - 41.0 °F 71% 29.86 in 5.0 mi North 9.2 mph - N/A   Haze
5:15 PM 50.0 °F - 41.0 °F 71% 29.86 in 5.0 mi North 10.4 mph 17.3 mph N/A   Haze
5:35 PM 50.0 °F - 39.2 °F 66% 29.86 in 7.0 mi NNW 6.9 mph - N/A   Clear
5:55 PM 50.0 °F - 41.0 °F 71% 29.86 in 7.0 mi North 8.1 mph - N/A   Partly Cloudy
6:15 PM 50.0 °F - 39.2 °F 66% 29.87 in 7.0 mi NNE 8.1 mph - N/A   Partly Cloudy
6:35 PM 50.0 °F - 41.0 °F 71% 29.87 in 5.0 mi NNW 9.2 mph - N/A   Haze
6:55 PM 50.0 °F - 41.0 °F 71% 29.87 in 5.0 mi NNE 3.5 mph - N/A   Haze
7:15 PM 44.6 °F 42.2 °F 37.4 °F 76% 29.88 in 7.0 mi North 4.6 mph - N/A   Mostly Cloudy
7:35 PM 44.6 °F 41.4 °F 37.4 °F 76% 29.88 in 7.0 mi North 5.8 mph - N/A   Partly Cloudy
7:55 PM 50.0 °F - 28.4 °F 43% 29.88 in 10.0 mi North 3.5 mph - N/A   Clear
8:15 PM 50.0 °F - 26.6 °F 40% 29.89 in 10.0 mi NNW 4.6 mph - N/A   Clear
8:35 PM 46.4 °F 45.2 °F 28.4 °F 50% 29.90 in 10.0 mi North 3.5 mph - N/A   Clear
8:55 PM 44.6 °F 43.1 °F 28.4 °F 53% 29.91 in 10.0 mi NNW 3.5 mph - N/A   Clear
9:15 PM 44.6 °F 42.2 °F 26.6 °F 49% 29.92 in 10.0 mi North 4.6 mph - N/A   Clear
9:35 PM 46.4 °F 42.9 °F 23.0 °F 40% 29.92 in 10.0 mi NNE 6.9 mph - N/A   Clear
9:55 PM 48.2 °F - 19.4 °F 32% 29.92 in 10.0 mi North 5.8 mph - N/A   Clear
10:15 PM 44.6 °F 43.1 °F 23.0 °F 43% 29.92 in 10.0 mi NE 3.5 mph - N/A   Clear
10:35 PM 46.4 °F 44.3 °F 19.4 °F 34% 29.94 in 10.0 mi NW 4.6 mph - N/A   Clear
10:55 PM 48.2 °F - 21.2 °F 34% 29.94 in 9.0 mi NNW 3.5 mph - N/A   Clear
11:15 PM 44.6 °F - 23.0 °F 43% 29.95 in 10.0 mi Calm Calm - N/A   Clear
11:35 PM 41.0 °F 39.0 °F 21.2 °F 45% 29.95 in 10.0 mi NNW 3.5 mph - N/A   Clear
11:55 PM 42.8 °F 41.1 °F 19.4 °F 39% 29.95 in 9.0 mi NNE 3.5 mph - N/A   Clear